Tracking 29933 objects as of 2-Dec-2024
HD Live streaming from Space Station
objects crossing your sky now

STARLINK-5951

Track STARLINK-5951 now!
10-day predictions
STARLINK-5951 is classified as:


NORAD ID: 56918
Int'l Code: 2023-083AU
Perigee: 565.4 km
Apogee: 567.1 km
Inclination: 43.0 °
Period: 95.8 minutes
Semi major axis: 6937 km
RCS: Unknown
Launch date: June 12, 2023
Source: United States (US)
Launch site: AIR FORCE EASTERN TEST RANGE (AFETR)
Your satellite tracking list
Your tracking list is empty




NASA's NSSDC Master Catalog

Two Line Element Set (TLE):
1 56918U 23083AU  24337.28762639  .00003857  00000-0  30052-3 0  9993
2 56918  43.0064  61.2893 0001170 253.0075 107.0639 15.02522836 82266
Source of the keplerian elements: AFSPC